NOAA 16 DEB, 41155

Orbit data source: Space-Track

NOAA 16 DEB, 41155 is space debris in SSO originally from a launch on Thu, 21 Sep 2000 UTC launched from the Air Force Western Test Range (AFWTR). Debris objects in space refer to the collection of defunct objects orbiting the Earth. Examples of debris include non-operational satellites, rocket bodies, and fragments generated from explosions, collisions, or faulty payload assembly.

Loading next visibility...
Identifier
41155, 2000-055CN
Orbit
SSO
Country
Flag of USUS
Related business
Manufacturer
Unknown
Mission
Spacecraft
Bus & Motor
Unknown
Mass
Unknown
Launch date (UTC)
2000-09-21 (26 years ago)
Launch vehicle
Unknown
Launch site
Air Force Western Test Range (AFWTR)
Object type
Payload
Rocket body
Debris
Shape & HBR
Unknown shape, 0.1 m
Radar Cross Section
Medium (>0.1 m² and <1 m²)

Expand to show TLE details & history
Last TLE update: 1 day ago

TLE from 1 day ago
0 NOAA 16 DEB
1 41155U 00055CN  26205.61116702  .00004980  00000-0  16626-2 0  9999
2 41155  98.8903 340.1318 0017363  65.2157 295.0833 14.37869583551714
Epoch: 2026-07-24T14:40Z
TLE epoch observation values (Epoch: 2026-07-24T14:40:04.830Z)
Latitude
-0.00002°
Longitude
177.77636°
Altitude
763.237 km
Speed
7.475 km/s
True Right ascension
22h 40m 31s
True Declination
0° 00' 00"
Sunlit
Object was in full shadow at epoch
Visualization orbit readout
Latitude
Unknown
Longitude
Unknown
Altitude
Unknown
Speed
Unknown
Apparent Right ascension
Unknown
Apparent Declination
Unknown
Sunlit
N/A
Visualization observer readout
Local Sidereal Time
14:25:22
Azimuth
Unknown
Elevation
Unknown
Doppler factor
Unknown
Orbital elements
Apogee altitude
775.088 km
Perigee altitude
750.291 km
Semi-major axis
7,140.827 km
Eccentricity
0.00174
Inclination
98.8903°
RAAN
340.1318°
Arg. of periapsis
65.2157°
True anomaly
294.90293°
Mean anomaly
295.0833°
Eccentric anomaly
294.99313°
Mean motion
3.59683 °/min
Orbital period
100.09 mins
BSTAR
0.0016626
Loading maneuver chart data...
Computing Atmospheric mass density...

Documentation

Showing up to 5 results
|